Project,Study,Ord_Occ,Event_Num,Cast_ID,Date_Time_UTC,Date_Time_PST,Lat_Dec,Lon_Dec,Sta_ID,Line,Sta,Depth,Pressure,PrQ,Temp1,Temp1Q,Temp2,Temp2Q,TempAve,Salt1,Salt1Q,Salt1_Corr,Salt2,Salt2Q,Salt2_Corr,SaltAve_Corr,Ox1,Ox1Q,Ox1_CruiseCorr,Ox1_StaCorr,Ox2,Ox2Q,Ox2_CruiseCorr,Ox2_StaCorr,OxAve_StaCorr,Ox1uM,Ox1uM_CruiseCorr,Ox1uM_StaCorr,Ox2uM,Ox2uM_CruiseCorr,Ox2uM_StaCorr,OxAveuM_StaCorr,FluorV,FluorQ,EstChl_CruiseCorr,EstChl_StaCorr,ISUSV,ISUSQ,EstNO3_CruiseCorr,EstNO3_StaCorr,SigThetaTS1,SigThetaTS1Q,SigThetaTS2,SigThetaTS2Q,BAT,XMiss,TransQ,pH,pHQ,SPAR,SPARQ,PAR,PARQ,PoT1,PoT2,DynHt,SVA,OxSat1,OxSat2,BTL_Depth,BTL_Temp,SaltB,OxB,OxBuM,Chl-a,Phaeo,NO3,NO2,NH4,PO4,SIL
CalCOFI,2105SH,005,,2105_005u,05-May-2021 06:53:59,04-May-2021 22:53:59,32.51406,-118.21454,093.3 040.0,093.3,040.0,518.000,522.315,,6.0960,,6.0963,,6.0962,34.3335,,34.3347,34.3345,,34.3364,34.3356,0.2311,,0.3078,0.2694,0.2406,,0.3086,0.2765,0.2730,10.052,13.0072,12.2432,10.464,15.9847,13.3469,12.7951,0.0379,,,,0.5762,,0.0000,,27.0196,,27.0204,,,,,,,,,,,6.0501,6.0504,0.8230,110.396,3.339,3.475,,,,,,,,,,,,
CalCOFI,2105SH,005,,2105_005u,05-May-2021 06:54:01,04-May-2021 22:54:01,32.51406,-118.21454,093.3 040.0,093.3,040.0,517.000,521.306,,6.1017,,6.1012,,6.1015,34.3329,,34.3341,34.3342,,34.3361,34.3351,0.2349,,0.3118,0.2734,0.2406,,0.3086,0.2765,0.2750,10.215,13.1776,12.3833,10.461,16.1607,13.3444,12.8639,0.0369,,,,0.5762,,0.0000,,27.0185,,27.0195,,,,,,,,,,,6.0558,6.0553,0.8230,110.496,3.393,3.475,,,,,,,,,,,,
CalCOFI,2105SH,005,,2105_005u,05-May-2021 06:54:07,04-May-2021 22:54:07,32.51406,-118.21454,093.3 040.0,093.3,040.0,516.000,520.296,,6.1032,,6.1030,,6.1031,34.3331,,34.3343,34.3342,,34.3361,34.3352,0.2322,,0.3089,0.2705,0.2400,,0.3080,0.2758,0.2732,10.098,13.0552,12.2827,10.439,16.0344,13.3259,12.8043,0.0370,,,,0.5761,,0.0000,,27.0184,,27.0193,,,,,,,,,,,6.0574,6.0573,0.8236,110.488,3.354,3.468,516,6.103,34.3298,0.251,10.91,,,,,,,
CalCOFI,2105SH,005,,2105_005u,05-May-2021 06:54:18,04-May-2021 22:54:18,32.51408,-118.21454,093.3 040.0,093.3,040.0,515.000,519.286,,6.1036,,6.1037,,6.1037,34.3330,,34.3342,34.3340,,34.3359,34.3351,0.2329,,0.3097,0.2713,0.2435,,0.3116,0.2795,0.2754,10.127,13.0856,12.3077,10.590,16.0657,13.4525,12.8801,0.0378,,,,0.5759,,0.0000,,27.0183,,27.0190,,,,,,,,,,,6.0579,6.0580,0.8251,110.488,3.364,3.518,,,,,,,,,,,,
CalCOFI,2105SH,005,,2105_005u,05-May-2021 06:54:20,04-May-2021 22:54:20,32.51408,-118.21454,093.3 040.0,093.3,040.0,514.000,518.277,,6.1038,,6.1040,,6.1039,34.3329,,34.3341,34.3340,,34.3359,34.3350,0.2391,,0.3162,0.2778,0.2431,,0.3112,0.2791,0.2785,10.399,13.3699,12.5415,10.569,16.3595,13.4349,12.9882,0.0370,,,,0.5759,,0.0000,,27.0181,,27.0189,,,,,,,,,,,6.0582,6.0584,0.8252,110.486,3.454,3.511,,,,,,,,,,,,
CalCOFI,2105SH,005,,2105_005u,05-May-2021 06:54:21,04-May-2021 22:54:21,32.51408,-118.21454,093.3 040.0,093.3,040.0,513.000,517.267,,6.1069,,6.1063,,6.1066,34.3325,,34.3337,34.3339,,34.3358,34.3348,0.2368,,0.3137,0.2754,0.2408,,0.3088,0.2767,0.2761,10.298,13.2643,12.4547,10.472,16.2504,13.3536,12.9042,0.0374,,,,0.5759,,0.0000,,27.0174,,27.0185,,,,,,,,,,,6.0613,6.0608,0.8252,110.544,3.421,3.479,,,,,,,,,,,,
CalCOFI,2105SH,005,,2105_005u,05-May-2021 06:54:22,04-May-2021 22:54:22,32.51408,-118.21454,093.3 040.0,093.3,040.0,512.000,516.258,,6.1092,,6.1077,,6.1085,34.3324,,34.3336,34.3336,,34.3355,34.3346,0.2355,,0.3124,0.2740,0.2407,,0.3087,0.2766,0.2753,10.241,13.2047,12.4057,10.468,16.1888,13.3502,12.8780,0.0372,,,,0.5759,,0.0000,,27.0170,,27.0182,,,,,,,,,,,6.0638,6.0623,0.8252,110.568,3.403,3.478,,,,,,,,,,,,
CalCOFI,2105SH,005,,2105_005u,05-May-2021 06:54:24,04-May-2021 22:54:24,32.51408,-118.21454,093.3 040.0,093.3,040.0,511.000,515.248,,6.1095,,6.1099,,6.1097,34.3326,,34.3338,34.3336,,34.3355,34.3347,0.2360,,0.3129,0.2745,0.2407,,0.3087,0.2766,0.2756,10.261,13.2256,12.4229,10.466,16.2104,13.3486,12.8858,0.0372,,,,0.5760,,0.0000,,27.0171,,27.0178,,,,,,,,,,,6.0641,6.0645,0.8252,110.547,3.409,3.477,,,,,,,,,,,,
CalCOFI,2105SH,005,,2105_005u,05-May-2021 06:54:25,04-May-2021 22:54:25,32.51408,-118.21454,093.3 040.0,093.3,040.0,510.000,514.239,,6.1139,,6.1141,,6.1140,34.3318,,34.3330,34.3331,,34.3350,34.3340,0.2344,,0.3112,0.2729,0.2406,,0.3086,0.2765,0.2747,10.194,13.1556,12.3653,10.463,16.1381,13.3460,12.8557,0.0378,,,,0.5760,,0.0000,,27.0160,,27.0170,,,,,,,,,,,6.0686,6.0688,0.8252,110.647,3.387,3.477,,,,,,,,,,,,
CalCOFI,2105SH,005,,2105_005u,05-May-2021 06:54:26,04-May-2021 22:54:26,32.51408,-118.21454,093.3 040.0,093.3,040.0,509.000,513.229,,6.1140,,6.1111,,6.1126,34.3324,,34.3336,34.3334,,34.3353,34.3345,0.2353,,0.3122,0.2738,0.2406,,0.3086,0.2765,0.2752,10.230,13.1932,12.3962,10.463,16.1769,13.3460,12.8711,0.0375,,,,0.5760,,0.0000,,27.0163,,27.0175,,,,,,,,,,,6.0688,6.0659,0.8252,110.597,3.399,3.476,,,,,,,,,,,,
CalCOFI,2105SH,005,,2105_005u,05-May-2021 06:54:27,04-May-2021 22:54:27,32.51408,-118.21454,093.3 040.0,093.3,040.0,508.000,512.219,,6.1128,,6.1124,,6.1126,34.3323,,34.3335,34.3333,,34.3352,34.3344,0.2362,,0.3131,0.2748,0.2406,,0.3086,0.2765,0.2757,10.271,13.2361,12.4315,10.461,16.2212,13.3444,12.8880,0.0382,,,,0.5760,,0.0000,,27.0164,,27.0173,,,,,,,,,,,6.0677,6.0673,0.8252,110.573,3.413,3.476,,,,,,,,,,,,
CalCOFI,2105SH,005,,2105_005u,05-May-2021 06:54:28,04-May-2021 22:54:28,32.51408,-118.21454,093.3 040.0,093.3,040.0,507.000,511.210,,6.1133,,6.1141,,6.1137,34.3321,,34.3333,34.3333,,34.3352,34.3343,0.2354,,0.3123,0.2739,0.2405,,0.3085,0.2763,0.2751,10.237,13.2006,12.4022,10.459,16.1845,13.3427,12.8725,0.0372,,,,0.5761,,0.0000,,27.0162,,27.0170,,,,,,,,,,,6.0683,6.0691,0.8252,110.576,3.401,3.475,,,,,,,,,,,,
CalCOFI,2105SH,005,,2105_005u,05-May-2021 06:54:29,04-May-2021 22:54:29,32.51408,-118.21454,093.3 040.0,093.3,040.0,506.000,510.200,,6.1157,,6.1177,,6.1167,34.3321,,34.3333,34.3331,,34.3350,34.3342,0.2354,,0.3123,0.2739,0.2405,,0.3085,0.2763,0.2751,10.235,13.1985,12.4005,10.457,16.1823,13.3410,12.8708,0.0374,,,,0.5761,,0.0000,,27.0159,,27.0164,,,,,,,,,,,6.0708,6.0727,0.8252,110.596,3.401,3.475,,,,,,,,,,,,
CalCOFI,2105SH,005,,2105_005u,05-May-2021 06:54:30,04-May-2021 22:54:30,32.51408,-118.21454,093.3 040.0,093.3,040.0,505.000,509.191,,6.1182,,6.1200,,6.1191,34.3315,,34.3327,34.3331,,34.3350,34.3339,0.2353,,0.3122,0.2738,0.2404,,0.3084,0.2762,0.2750,10.233,13.1964,12.3988,10.455,16.1802,13.3393,12.8691,0.0367,,,,0.5762,,0.0000,,27.0151,,27.0161,,,,,,,,,,,6.0734,6.0752,0.8252,110.664,3.401,3.474,,,,,,,,,,,,
CalCOFI,2105SH,005,,2105_005u,05-May-2021 06:54:31,04-May-2021 22:54:31,32.51408,-118.21454,093.3 040.0,093.3,040.0,504.000,508.181,,6.1224,,6.1273,,6.1249,34.3314,,34.3326,34.3326,,34.3345,34.3336,0.2353,,0.3122,0.2738,0.2403,,0.3083,0.2761,0.2750,10.231,13.1943,12.3971,10.452,16.1780,13.3368,12.8670,0.0371,,,,0.5762,,0.0000,,27.0144,,27.0148,,,,,,,,,,,6.0776,6.0825,0.8252,110.715,3.400,3.474,,,,,,,,,,,,
CalCOFI,2105SH,005,,2105_005u,05-May-2021 06:54:32,04-May-2021 22:54:32,32.51408,-118.21454,093.3 040.0,093.3,040.0,503.000,507.172,,6.1311,,6.1351,,6.1331,34.3300,,34.3312,34.3324,,34.3343,34.3328,0.2352,,0.3121,0.2737,0.2403,,0.3083,0.2761,0.2749,10.229,13.1922,12.3954,10.448,16.1759,13.3335,12.8645,0.0371,,,,0.5763,,0.0000,,27.0122,,27.0136,,,,,,,,,,,6.0864,6.0904,0.8252,110.919,3.400,3.473,,,,,,,,,,,,
CalCOFI,2105SH,005,,2105_005u,05-May-2021 06:54:33,04-May-2021 22:54:33,32.51408,-118.21454,093.3 040.0,093.3,040.0,502.000,506.162,,6.1483,,6.1408,,6.1446,34.3289,,34.3301,34.3322,,34.3341,34.3321,0.2391,,0.3162,0.2778,0.2410,,0.3090,0.2769,0.2774,10.399,13.3699,12.5415,10.480,16.3595,13.3603,12.9509,0.0379,,,,0.5763,,0.0000,,27.0091,,27.0127,,,,,,,,,,,6.1036,6.0961,0.8252,111.212,3.458,3.484,,,,,,,,,,,,
CalCOFI,2105SH,005,,2105_005u,05-May-2021 06:54:34,04-May-2021 22:54:34,32.51408,-118.21454,093.3 040.0,093.3,040.0,501.000,505.153,,6.1583,,6.1502,,6.1543,34.3282,,34.3294,34.3315,,34.3334,34.3314,0.2444,,0.3217,0.2834,0.2431,,0.3112,0.2791,0.2813,10.626,13.6072,12.7367,10.572,16.6046,13.4375,13.0871,0.0366,,,,0.5764,,0.0000,,27.0073,,27.0109,,,,,,,,,,,6.1137,6.1056,0.8252,111.382,3.534,3.515,,,,,,,,,,,,
CalCOFI,2105SH,005,,2105_005u,05-May-2021 06:54:35,04-May-2021 22:54:35,32.51408,-118.21454,093.3 040.0,093.3,040.0,500.000,504.143,,6.1640,,6.1555,,6.1598,34.3295,,34.3307,34.3311,,34.3330,34.3319,0.2405,,0.3176,0.2793,0.2498,,0.3181,0.2861,0.2827,10.458,13.4316,12.5923,10.863,16.4232,13.6815,13.1369,0.0376,,,,0.5765,,0.0000,,27.0076,,27.0100,,,,,,,,,,,6.1195,6.1110,0.8252,111.347,3.479,3.613,,,,,,,,,,,,
CalCOFI,2105SH,005,,2105_005u,05-May-2021 06:54:36,04-May-2021 22:54:36,32.51408,-118.21454,093.3 040.0,093.3,040.0,499.000,503.134,,6.1624,,6.1598,,6.1611,34.3289,,34.3301,34.3305,,34.3324,34.3313,0.2394,,0.3165,0.2781,0.2462,,0.3144,0.2823,0.2802,10.410,13.3814,12.5510,10.705,16.3713,13.5490,13.0500,0.0373,,,,0.5766,,0.0000,,27.0073,,27.0089,,,,,,,,,,,6.1180,6.1153,0.8252,111.357,3.463,3.561,,,,,,,,,,,,
CalCOFI,2105SH,005,,2105_005u,05-May-2021 06:54:37,04-May-2021 22:54:37,32.51408,-118.21454,093.3 040.0,093.3,040.0,498.000,502.124,,6.1823,,6.1668,,6.1746,34.3291,,34.3303,34.3299,,34.3318,34.3311,0.2392,,0.3163,0.2779,0.2441,,0.3122,0.2801,0.2790,10.402,13.3731,12.5441,10.615,16.3627,13.4735,13.0088,0.0369,,,,0.5768,,0.0000,,27.0049,,27.0076,,,,,,,,,,,6.1379,6.1224,0.8252,111.594,3.462,3.531,,,,,,,,,,,,
CalCOFI,2105SH,005,,2105_005u,05-May-2021 06:54:38,04-May-2021 22:54:38,32.51408,-118.21454,093.3 040.0,093.3,040.0,497.000,501.115,,6.1659,,6.1820,,6.1740,34.3298,,34.3310,34.3299,,34.3318,34.3314,0.2393,,0.3164,0.2780,0.2443,,0.3124,0.2803,0.2792,10.405,13.3762,12.5467,10.622,16.3659,13.4794,13.0131,0.0372,,,,0.5770,,0.0000,,27.0075,,27.0056,,,,,,,,,,,6.1216,6.1377,0.8252,111.314,3.461,3.535,,,,,,,,,,,,
CalCOFI,2105SH,005,,2105_005u,05-May-2021 06:54:39,04-May-2021 22:54:39,32.51408,-118.21454,093.3 040.0,093.3,040.0,496.000,500.105,,6.1836,,6.1858,,6.1847,34.3271,,34.3283,34.3292,,34.3311,34.3297,0.2409,,0.3180,0.2797,0.2474,,0.3157,0.2835,0.2816,10.474,13.4483,12.6060,10.757,16.4405,13.5926,13.0993,0.0374,,,,0.5771,,0.0000,,27.0031,,27.0046,,,,,,,,,,,6.1393,6.1415,0.8252,111.733,3.486,3.580,,,,,,,,,,,,
CalCOFI,2105SH,005,,2105_005u,05-May-2021 06:54:39,04-May-2021 22:54:39,32.51408,-118.21454,093.3 040.0,093.3,040.0,495.000,499.096,,6.1916,,6.2093,,6.2005,34.3290,,34.3302,34.3279,,34.3298,34.3300,0.2476,,0.3250,0.2868,0.2537,,0.3222,0.2901,0.2885,10.765,13.7525,12.8562,11.033,16.7547,13.8240,13.3401,0.0375,,,,0.5773,,0.0000,,27.0037,,27.0005,,,,,,,,,,,6.1474,6.1650,0.8252,111.682,3.583,3.674,,,,,,,,,,,,
CalCOFI,2105SH,005,,2105_005u,05-May-2021 06:54:40,04-May-2021 22:54:40,32.51408,-118.21454,093.3 040.0,093.3,040.0,494.000,498.086,,6.1964,,6.2076,,6.2020,34.3276,,34.3288,34.3287,,34.3306,34.3297,0.2499,,0.3274,0.2892,0.2533,,0.3218,0.2897,0.2895,10.868,13.8602,12.9448,11.014,16.8660,13.8081,13.3765,0.0375,,,,0.5774,,0.0000,,27.0019,,27.0014,,,,,,,,,,,6.1523,6.1634,0.8252,111.834,3.618,3.667,,,,,,,,,,,,
CalCOFI,2105SH,005,,2105_005u,05-May-2021 06:54:41,04-May-2021 22:54:41,32.51408,-118.21456,093.3 040.0,093.3,040.0,493.000,497.077,,6.2454,,6.2181,,6.2318,34.3221,,34.3233,34.3301,,34.3320,34.3277,0.2448,,0.3221,0.2838,0.2480,,0.3163,0.2842,0.2840,10.643,13.6250,12.7513,10.784,16.6230,13.6152,13.1833,0.0374,,,,0.5777,,0.0000,,26.9912,,27.0011,,,,,,,,,,,6.2012,6.1740,0.8252,112.881,3.547,3.592,,,,,,,,,,,,
CalCOFI,2105SH,005,,2105_005u,05-May-2021 06:54:42,04-May-2021 22:54:42,32.51408,-118.21456,093.3 040.0,093.3,040.0,492.000,496.067,,6.2452,,6.2449,,6.2451,34.3260,,34.3272,34.3274,,34.3293,34.3283,0.2526,,0.3303,0.2921,0.2506,,0.3190,0.2869,0.2895,10.984,13.9815,13.0445,10.897,16.9913,13.7100,13.3773,0.0372,,,,0.5779,,0.0000,,26.9944,,26.9955,,,,,,,,,,,6.2011,6.2007,0.8252,112.572,3.661,3.631,,,,,,,,,,,,
CalCOFI,2105SH,005,,2105_005u,05-May-2021 06:54:43,04-May-2021 22:54:43,32.51408,-118.21456,093.3 040.0,093.3,040.0,491.000,495.058,,6.2670,,6.2436,,6.2553,34.3238,,34.3250,34.3268,,34.3287,34.3269,0.2492,,0.3267,0.2885,0.2588,,0.3275,0.2954,0.2920,10.836,13.8268,12.9173,11.255,16.8314,14.0102,13.4638,0.0363,,,,0.5782,,0.0000,,26.9898,,26.9952,,,,,,,,,,,6.2229,6.1995,0.8252,113.014,3.613,3.751,,,,,,,,,,,,
CalCOFI,2105SH,005,,2105_005u,05-May-2021 06:54:44,04-May-2021 22:54:44,32.51408,-118.21454,093.3 040.0,093.3,040.0,490.000,494.048,,6.2604,,6.2557,,6.2581,34.3256,,34.3268,34.3263,,34.3282,34.3275,0.2478,,0.3252,0.2870,0.2528,,0.3213,0.2892,0.2881,10.776,13.7640,12.8657,10.995,16.7666,13.7922,13.3290,0.0374,,,,0.5784,,0.0000,,26.9921,,26.9933,,,,,,,,,,,6.2164,6.2117,0.8252,112.779,3.593,3.665,,,,,,,,,,,,
CalCOFI,2105SH,005,,2105_005u,05-May-2021 06:54:45,04-May-2021 22:54:45,32.51408,-118.21454,093.3 040.0,093.3,040.0,489.000,493.039,,6.2583,,6.2569,,6.2576,34.3258,,34.3270,34.3267,,34.3286,34.3278,0.2478,,0.3252,0.2870,0.2526,,0.3210,0.2890,0.2880,10.775,13.7630,12.8648,10.983,16.7655,13.7821,13.3235,0.0373,,,,0.5787,,0.0000,,26.9925,,26.9934,,,,,,,,,,,6.2144,6.2130,0.8252,112.720,3.592,3.661,,,,,,,,,,,,
CalCOFI,2105SH,005,,2105_005u,05-May-2021 06:54:46,04-May-2021 22:54:46,32.51408,-118.21454,093.3 040.0,093.3,040.0,488.000,492.029,,6.2551,,6.2591,,6.2571,34.3260,,34.3272,34.3268,,34.3287,34.3280,0.2478,,0.3252,0.2870,0.2523,,0.3207,0.2887,0.2879,10.775,13.7630,12.8648,10.972,16.7655,13.7729,13.3189,0.0376,,,,0.5789,,0.0000,,26.9930,,26.9932,,,,,,,,,,,6.2113,6.2153,0.8252,112.654,3.592,3.658,,,,,,,,,,,,
CalCOFI,2105SH,005,,2105_005u,05-May-2021 06:54:47,04-May-2021 22:54:47,32.51408,-118.21454,093.3 040.0,093.3,040.0,487.000,491.020,,6.2785,,6.2639,,6.2712,34.3225,,34.3237,34.3280,,34.3299,34.3268,0.2495,,0.3270,0.2888,0.2529,,0.3214,0.2893,0.2891,10.848,13.8393,12.9276,10.997,16.8444,13.7938,13.3607,0.0375,,,,0.5792,,0.0000,,26.9873,,26.9935,,,,,,,,,,,6.2347,6.2202,0.8252,113.208,3.618,3.666,,,,,,,,,,,,
CalCOFI,2105SH,005,,2105_005u,05-May-2021 06:54:48,04-May-2021 22:54:48,32.51408,-118.21454,093.3 040.0,093.3,040.0,486.000,490.011,,6.3053,,6.2940,,6.2997,34.3230,,34.3242,34.3273,,34.3292,34.3267,0.2534,,0.3311,0.2929,0.2558,,0.3244,0.2923,0.2926,11.017,14.0160,13.0729,11.123,17.0269,13.8995,13.4862,0.0379,,,,0.5794,,0.0000,,26.9842,,26.9890,,,,,,,,,,,6.2615,6.2503,0.8252,113.515,3.677,3.711,,,,,,,,,,,,
CalCOFI,2105SH,005,,2105_005u,05-May-2021 06:54:49,04-May-2021 22:54:49,32.51408,-118.21454,093.3 040.0,093.3,040.0,485.000,489.001,,6.3000,,6.2947,,6.2974,34.3250,,34.3262,34.3265,,34.3284,34.3273,0.2523,,0.3300,0.2918,0.2612,,0.3300,0.2979,0.2949,10.971,13.9679,13.0334,11.358,16.9772,14.0966,13.5650,0.0369,,,,0.5796,,0.0000,,26.9864,,26.9883,,,,,,,,,,,6.2564,6.2511,0.8252,113.285,3.661,3.789,,,,,,,,,,,,
CalCOFI,2105SH,005,,2105_005u,05-May-2021 06:54:50,04-May-2021 22:54:50,32.51408,-118.21454,093.3 040.0,093.3,040.0,484.000,487.992,,6.2999,,6.2986,,6.2993,34.3242,,34.3254,34.3259,,34.3278,34.3266,0.2544,,0.3322,0.2940,0.2578,,0.3264,0.2944,0.2942,11.065,14.0662,13.1142,11.210,17.0787,13.9725,13.5434,0.0368,,,,0.5799,,0.0000,,26.9858,,26.9873,,,,,,,,,,,6.2564,6.2550,0.8252,113.324,3.692,3.740,,,,,,,,,,,,
CalCOFI,2105SH,005,,2105_005u,05-May-2021 06:54:51,04-May-2021 22:54:51,32.51408,-118.21454,093.3 040.0,093.3,040.0,483.000,486.982,,6.2934,,6.2971,,6.2953,34.3250,,34.3262,34.3245,,34.3264,34.3263,0.2519,,0.3295,0.2913,0.2558,,0.3244,0.2923,0.2918,10.954,13.9501,13.0187,11.124,16.9589,13.9003,13.4595,0.0376,,,,0.5801,,0.0000,,26.9873,,26.9864,,,,,,,,,,,6.2500,6.2536,0.8252,113.168,3.655,3.712,,,,,,,,,,,,
CalCOFI,2105SH,005,,2105_005u,05-May-2021 06:54:52,04-May-2021 22:54:52,32.51408,-118.21454,093.3 040.0,093.3,040.0,482.000,485.973,,6.2961,,6.2989,,6.2975,34.3230,,34.3242,34.3248,,34.3267,34.3255,0.2518,,0.3294,0.2912,0.2558,,0.3244,0.2923,0.2918,10.949,13.9449,13.0144,11.122,16.9535,13.8987,13.4566,0.0378,,,,0.5802,,0.0000,,26.9853,,26.9864,,,,,,,,,,,6.2527,6.2556,0.8252,113.338,3.653,3.711,,,,,,,,,,,,
CalCOFI,2105SH,005,,2105_005u,05-May-2021 06:54:52,04-May-2021 22:54:52,32.51408,-118.21454,093.3 040.0,093.3,040.0,481.000,484.964,,6.3115,,6.3076,,6.3096,34.3217,,34.3229,34.3257,,34.3276,34.3253,0.2517,,0.3293,0.2911,0.2557,,0.3243,0.2922,0.2917,10.944,13.9397,13.0101,11.118,16.9481,13.8953,13.4527,0.0375,,,,0.5804,,0.0000,,26.9823,,26.9859,,,,,,,,,,,6.2682,6.2643,0.8252,113.627,3.653,3.711,,,,,,,,,,,,
CalCOFI,2105SH,005,,2105_005u,05-May-2021 06:54:53,04-May-2021 22:54:53,32.51408,-118.21454,093.3 040.0,093.3,040.0,480.000,483.954,,6.3158,,6.3146,,6.3152,34.3223,,34.3235,34.3253,,34.3272,34.3254,0.2516,,0.3292,0.2910,0.2556,,0.3242,0.2921,0.2916,10.941,13.9365,13.0076,11.115,16.9448,13.8928,13.4502,0.0371,,,,0.5806,,0.0000,,26.9822,,26.9847,,,,,,,,,,,6.2725,6.2713,0.8252,113.621,3.652,3.710,,,,,,,,,,,,
CalCOFI,2105SH,005,,2105_005u,05-May-2021 06:54:54,04-May-2021 22:54:54,32.51406,-118.21454,093.3 040.0,093.3,040.0,479.000,482.945,,6.3250,,6.3163,,6.3207,34.3219,,34.3231,34.3250,,34.3269,34.3250,0.2515,,0.3291,0.2909,0.2585,,0.3272,0.2951,0.2930,10.937,13.9323,13.0041,11.239,16.9405,13.9968,13.5005,0.0379,,,,0.5808,,0.0000,,26.9807,,26.9843,,,,,,,,,,,6.2818,6.2732,0.8252,113.766,3.651,3.752,,,,,,,,,,,,
CalCOFI,2105SH,005,,2105_005u,05-May-2021 06:54:55,04-May-2021 22:54:55,32.51408,-118.21454,093.3 040.0,093.3,040.0,478.000,481.935,,6.3305,,6.3302,,6.3304,34.3222,,34.3234,34.3240,,34.3259,34.3247,0.2580,,0.3359,0.2978,0.2628,,0.3316,0.2996,0.2987,11.219,14.2271,13.2466,11.430,17.2451,14.1569,13.7018,0.0377,,,,0.5810,,0.0000,,26.9802,,26.9817,,,,,,,,,,,6.2874,6.2871,0.8252,113.803,3.746,3.816,,,,,,,,,,,,
CalCOFI,2105SH,005,,2105_005u,05-May-2021 06:54:56,04-May-2021 22:54:56,32.51408,-118.21454,093.3 040.0,093.3,040.0,477.000,480.926,,6.3366,,6.3364,,6.3365,34.3214,,34.3226,34.3231,,34.3250,34.3238,0.2562,,0.3340,0.2959,0.2609,,0.3296,0.2976,0.2968,11.141,14.1456,13.1795,11.344,17.1608,14.0848,13.6322,0.0372,,,,0.5812,,0.0000,,26.9787,,26.9801,,,,,,,,,,,6.2936,6.2933,0.8252,113.929,3.721,3.789,,,,,,,,,,,,
CalCOFI,2105SH,005,,2105_005u,05-May-2021 06:54:57,04-May-2021 22:54:57,32.51408,-118.21454,093.3 040.0,093.3,040.0,476.000,479.916,,6.3316,,6.3324,,6.3320,34.3223,,34.3235,34.3229,,34.3248,34.3242,0.2589,,0.3369,0.2987,0.2606,,0.3293,0.2973,0.2980,11.258,14.2679,13.2801,11.333,17.2872,14.0756,13.6779,0.0376,,,,0.5815,,0.0000,,26.9801,,26.9805,,,,,,,,,,,6.2887,6.2895,0.8252,113.777,3.759,3.785,,,,,,,,,,,,
CalCOFI,2105SH,005,,2105_005u,05-May-2021 06:54:58,04-May-2021 22:54:58,32.51408,-118.21454,093.3 040.0,093.3,040.0,475.000,478.907,,6.3232,,6.3260,,6.3246,34.3232,,34.3244,34.3240,,34.3259,34.3252,0.2565,,0.3343,0.2962,0.2595,,0.3282,0.2962,0.2962,11.154,14.1592,13.1907,11.287,17.1749,14.0370,13.6139,0.0375,,,,0.5816,,0.0000,,26.9819,,26.9822,,,,,,,,,,,6.2804,6.2832,0.8252,113.590,3.724,3.768,,,,,,,,,,,,
CalCOFI,2105SH,005,,2105_005u,05-May-2021 06:54:59,04-May-2021 22:54:59,32.51408,-118.21454,093.3 040.0,093.3,040.0,474.000,477.898,,6.3240,,6.3298,,6.3269,34.3225,,34.3237,34.3236,,34.3255,34.3246,0.2562,,0.3340,0.2959,0.2605,,0.3292,0.2972,0.2966,11.140,14.1446,13.1787,11.329,17.1597,14.0722,13.6255,0.0371,,,,0.5818,,0.0000,,26.9813,,26.9813,,,,,,,,,,,6.2813,6.2870,0.8252,113.635,3.719,3.783,,,,,,,,,,,,
CalCOFI,2105SH,005,,2105_005u,05-May-2021 06:55:00,04-May-2021 22:55:00,32.51408,-118.21454,093.3 040.0,093.3,040.0,473.000,476.888,,6.3282,,6.3338,,6.3310,34.3219,,34.3231,34.3227,,34.3246,34.3239,0.2561,,0.3339,0.2958,0.2682,,0.3372,0.3053,0.3006,11.137,14.1414,13.1761,11.662,17.1565,14.3515,13.7638,0.0369,,,,0.5820,,0.0000,,26.9802,,26.9801,,,,,,,,,,,6.2855,6.2911,0.8252,113.726,3.719,3.894,,,,,,,,,,,,
CalCOFI,2105SH,005,,2105_005u,05-May-2021 06:55:01,04-May-2021 22:55:01,32.51408,-118.21454,093.3 040.0,093.3,040.0,472.000,475.879,,6.3450,,6.3566,,6.3508,34.3193,,34.3205,34.3211,,34.3230,34.3218,0.2585,,0.3364,0.2983,0.2684,,0.3374,0.3055,0.3019,11.244,14.2533,13.2681,11.673,17.2721,14.3607,13.8144,0.0375,,,,0.5823,,0.0000,,26.9760,,26.9759,,,,,,,,,,,6.3024,6.3139,0.8252,114.128,3.756,3.900,,,,,,,,,,,,
CalCOFI,2105SH,005,,2105_005u,05-May-2021 06:55:02,04-May-2021 22:55:02,32.51408,-118.21454,093.3 040.0,093.3,040.0,471.000,474.869,,6.3553,,6.3680,,6.3617,34.3190,,34.3202,34.3200,,34.3219,34.3211,0.2655,,0.3438,0.3057,0.2634,,0.3322,0.3002,0.3030,11.548,14.5711,13.5295,11.453,17.6004,14.1762,13.8529,0.0382,,,,0.5825,,0.0000,,26.9744,,26.9735,,,,,,,,,,,6.3128,6.3254,0.8252,114.270,3.858,3.828,,,,,,,,,,,,
CalCOFI,2105SH,005,,2105_005u,05-May-2021 06:55:03,04-May-2021 22:55:03,32.51408,-118.21454,093.3 040.0,093.3,040.0,470.000,473.860,,6.3668,,6.3668,,6.3668,34.3185,,34.3197,34.3203,,34.3222,34.3210,0.2612,,0.3393,0.3012,0.2636,,0.3324,0.3005,0.3009,11.359,14.3735,13.3670,11.463,17.3963,14.1846,13.7758,0.0376,,,,0.5828,,0.0000,,26.9725,,26.9739,,,,,,,,,,,6.3243,6.3243,0.8252,114.445,3.796,3.831,,,,,,,,,,,,
CalCOFI,2105SH,005,,2105_005u,05-May-2021 06:55:04,04-May-2021 22:55:04,32.51408,-118.21454,093.3 040.0,093.3,040.0,469.000,472.851,,6.3647,,6.3695,,6.3671,34.3193,,34.3205,34.3204,,34.3223,34.3214,0.2617,,0.3398,0.3017,0.2719,,0.3410,0.3091,0.3054,11.381,14.3965,13.3859,11.826,17.4200,14.4890,13.9375,0.0372,,,,0.5831,,0.0000,,26.9733,,26.9736,,,,,,,,,,,6.3223,6.3271,0.8252,114.352,3.803,3.952,,,,,,,,,,,,
CalCOFI,2105SH,005,,2105_005u,05-May-2021 06:55:05,04-May-2021 22:55:05,32.51408,-118.21454,093.3 040.0,093.3,040.0,468.000,471.841,,6.3703,,6.3680,,6.3692,34.3171,,34.3183,34.3202,,34.3221,34.3202,0.2687,,0.3471,0.3091,0.2746,,0.3438,0.3119,0.3105,11.685,14.7143,13.6473,11.943,17.7483,14.5871,14.1172,0.0375,,,,0.5834,,0.0000,,26.9709,,26.9737,,,,,,,,,,,6.3280,6.3257,0.8252,114.570,3.905,3.991,,,,,,,,,,,,
CalCOFI,2105SH,005,,2105_005u,05-May-2021 06:55:05,04-May-2021 22:55:05,32.51408,-118.21454,093.3 040.0,093.3,040.0,467.000,470.832,,6.3897,,6.3778,,6.3838,34.3169,,34.3181,34.3199,,34.3218,34.3200,0.2691,,0.3475,0.3095,0.2687,,0.3377,0.3058,0.3077,11.701,14.7310,13.6610,11.686,17.7656,14.3716,14.0163,0.0362,,,,0.5836,,0.0000,,26.9682,,26.9721,,,,,,,,,,,6.3474,6.3355,0.8252,114.830,3.912,3.906,,,,,,,,,,,,
CalCOFI,2105SH,005,,2105_005u,05-May-2021 06:55:06,04-May-2021 22:55:06,32.51408,-118.21454,093.3 040.0,093.3,040.0,466.000,469.823,,6.4031,,6.3972,,6.4002,34.3172,,34.3184,34.3198,,34.3217,34.3201,0.2644,,0.3426,0.3045,0.2747,,0.3439,0.3120,0.3083,11.496,14.5167,13.4848,11.946,17.5442,14.5896,14.0372,0.0382,,,,0.5838,,0.0000,,26.9667,,26.9695,,,,,,,,,,,6.3608,6.3550,0.8252,114.977,3.845,3.995,,,,,,,,,,,,
CalCOFI,2105SH,005,,2105_005u,05-May-2021 06:55:07,04-May-2021 22:55:07,32.51408,-118.21454,093.3 040.0,093.3,040.0,465.000,468.813,,6.4131,,6.4075,,6.4103,34.3176,,34.3188,34.3217,,34.3236,34.3212,0.2645,,0.3427,0.3046,0.2793,,0.3487,0.3168,0.3107,11.504,14.5251,13.4916,12.146,17.5529,14.7573,14.1245,0.0379,,,,0.5840,,0.0000,,26.9657,,26.9696,,,,,,,,,,,6.3709,6.3653,0.8252,115.066,3.848,4.063,,,,,,,,,,,,
CalCOFI,2105SH,005,,2105_005u,05-May-2021 06:55:08,04-May-2021 22:55:08,32.51408,-118.21454,093.3 040.0,093.3,040.0,464.000,467.804,,6.4236,,6.4213,,6.4225,34.3178,,34.3190,34.3208,,34.3227,34.3209,0.2692,,0.3476,0.3096,0.2732,,0.3424,0.3105,0.3101,11.706,14.7363,13.6653,11.880,17.7710,14.5343,14.0998,0.0371,,,,0.5843,,0.0000,,26.9645,,26.9672,,,,,,,,,,,6.3814,6.3791,0.8252,115.178,3.917,3.975,,,,,,,,,,,,
CalCOFI,2105SH,005,,2105_005u,05-May-2021 06:55:09,04-May-2021 22:55:09,32.51408,-118.21454,093.3 040.0,093.3,040.0,463.000,466.795,,6.4314,,6.4301,,6.4308,34.3178,,34.3190,34.3199,,34.3218,34.3204,0.2726,,0.3512,0.3132,0.2714,,0.3405,0.3086,0.3109,11.852,14.8889,13.7909,11.801,17.9287,14.4680,14.1295,0.0374,,,,0.5846,,0.0000,,26.9634,,26.9652,,,,,,,,,,,6.3894,6.3881,0.8252,115.271,3.967,3.950,,,,,,,,,,,,